Coleman, TX

11:22 AM CDT on September 25, 2016 (GMT -0500)
Coleman Municipal

Weather History for KCOM - March, 2014

Change the Weather History Date:

Wednesday, March 26, 2014

  Actual Average (KABI) Record (KABI)
Temperature  
Mean Temperature 54 °F 59 °F  
Max Temperature 60 °F 72 °F 92 °F (1890)
Min Temperature 48 °F 47 °F 19 °F (1955)
Degree Days  
Heating Degree Days 11 7  
Month to date heating degree days 264  
Since 1 July heating degree days 2397  
Cooling Degree Days 0 1  
Month to date cooling degree days 21  
Year to date cooling degree days 26  
Growing Degree Days 4 (Base 50)    
Moisture  
Dew Point 42 °F    
Average Humidity 62    
Maximum Humidity 81    
Minimum Humidity 34    
Precipitation  
Precipitation 0.01 in 0.05 in 2.30 in (1938)
Month to date precipitation 1.47  
Year to date precipitation 3.85  
Sea Level Pressure  
Sea Level Pressure 30.00 in    
Wind  
Wind Speed 14 mph (SSE)    
Max Wind Speed 24 mph    
Max Gust Speed 36 mph    
Visibility 10 miles    
Events Rain    
T = Trace of Precipitation, MM = Missing Value Source: NWS Daily Summary

Daily Weather History Graph

Daily Weather History Graph

Search for Another Location

Airport or City:

Trip Planner

Search our weather history database for the weather conditions in past years. The results will help you decide how hot, cold, wet, or windy it might be!

Date:

Astronomy

Mar. 26, 2014 Rise Set
Actual Time 7:33 AM CDT 7:53 PM CDT
Civil Twilight 7:09 AM CDT 8:17 PM CDT
Nautical Twilight 6:40 AM CDT 8:46 PM CDT
Astronomical Twilight 6:11 AM CDT 9:15 PM CDT
Moon 4:28 AM CDT (3/26) 3:47 PM CDT (3/26)
Length of Visible Light 13h 08m
Length of Day
12h 19m
Waning Crescent, 21% of the Moon is Illuminated
Mar 26
Waning Crescent
Mar 30
New
Apr 7
First Quarter
Apr 15
Full
Apr 22
Last Quarter

Hourly Weather History & Observations

Time (CDT) Temp. Dew Point Humidity Pressure Visibility Wind Dir Wind Speed Gust Speed Precip Events Conditions
12:15 AM 50.0 °F 22.5 °F 34% 30.17 in 10.0 mi SSE 11.5 mph - N/A   Clear
12:35 AM 49.1 °F 22.6 °F 35% 30.16 in 10.0 mi SSE 9.2 mph - N/A   Clear
12:55 AM 49.5 °F 22.8 °F 35% 30.15 in 10.0 mi SE 11.5 mph - N/A   Clear
1:15 AM 49.1 °F 23.0 °F 36% 30.15 in 10.0 mi SE 11.5 mph - N/A   Clear
1:35 AM 48.2 °F 23.4 °F 38% 30.14 in 10.0 mi SE 10.4 mph - N/A   Clear
1:55 AM 48.0 °F 23.2 °F 38% 30.13 in 10.0 mi SE 9.2 mph - N/A   Clear
2:15 AM 48.4 °F 23.0 °F 37% 30.13 in 10.0 mi SE 12.7 mph 17.3 mph N/A   Clear
2:35 AM 48.6 °F 24.1 °F 38% 30.11 in 10.0 mi SE 12.7 mph 18.4 mph N/A   Clear
2:55 AM 48.4 °F 25.7 °F 41% 30.10 in 10.0 mi SSE 12.7 mph - N/A   Clear
3:15 AM 48.9 °F 27.3 °F 43% 30.09 in 10.0 mi SSE 9.2 mph - N/A   Clear
3:35 AM 50.5 °F 28.2 °F 42% 30.08 in 10.0 mi SSE 12.7 mph 19.6 mph N/A   Mostly Cloudy
3:55 AM 51.6 °F 29.1 °F 42% 30.07 in 10.0 mi SSE 16.1 mph 23.0 mph N/A   Overcast
4:15 AM 51.8 °F 29.8 °F 43% 30.06 in 10.0 mi SSE 17.3 mph 21.9 mph N/A   Overcast
4:35 AM 52.2 °F 30.2 °F 43% 30.06 in 10.0 mi SSE 15.0 mph - N/A   Overcast
4:55 AM 51.8 °F 30.4 °F 44% 30.05 in 10.0 mi SSE 16.1 mph 25.3 mph N/A   Mostly Cloudy
5:15 AM 50.7 °F 30.7 °F 46% 30.05 in 10.0 mi SSE 15.0 mph 20.7 mph N/A   Scattered Clouds
5:35 AM 50.5 °F 31.1 °F 47% 30.04 in 10.0 mi SSE 15.0 mph - N/A   Mostly Cloudy
5:55 AM 50.9 °F 31.6 °F 48% 30.04 in 10.0 mi SSE 13.8 mph - N/A   Overcast
6:15 AM 48.9 °F 37.0 °F 64% 30.05 in 10.0 mi SSE 10.4 mph 18.4 mph N/A Rain Light Rain
6:35 AM 48.4 °F 37.2 °F 65% 30.06 in 10.0 mi SSE 8.1 mph - N/A   Overcast
6:55 AM 48.2 °F 38.3 °F 69% 30.06 in 10.0 mi SSE 6.9 mph - N/A   Overcast
7:15 AM 48.7 °F 38.8 °F 69% 30.06 in 10.0 mi SSE 5.8 mph - N/A   Overcast
7:35 AM 49.1 °F 39.6 °F 70% 30.07 in 10.0 mi South 6.9 mph - N/A   Overcast
7:55 AM 49.3 °F 41.7 °F 75% 30.06 in 10.0 mi South 10.4 mph - N/A Rain Light Rain
8:15 AM 49.1 °F 43.0 °F 79% 30.06 in 10.0 mi South 6.9 mph - N/A Rain Light Rain
8:35 AM 49.5 °F 43.7 °F 81% 30.06 in 10.0 mi SSE 6.9 mph - N/A   Overcast
8:55 AM 50.2 °F 43.9 °F 79% 30.06 in 10.0 mi SE 9.2 mph - N/A   Overcast
9:15 AM 51.1 °F 43.9 °F 76% 30.05 in 10.0 mi SSE 12.7 mph - N/A   Overcast
9:35 AM 52.0 °F 43.2 °F 72% 30.04 in 10.0 mi SSE 13.8 mph - 0.01 in   Overcast
9:55 AM 52.7 °F 42.4 °F 68% 30.05 in 10.0 mi SSE 15.0 mph - 0.01 in   Overcast
10:15 AM 53.4 °F 41.5 °F 64% 30.05 in 10.0 mi South 13.8 mph 17.3 mph N/A   Overcast
10:35 AM 53.6 °F 42.1 °F 65% 30.05 in 10.0 mi South 12.7 mph 16.1 mph N/A   Overcast
10:55 AM 54.5 °F 43.0 °F 65% 30.04 in 10.0 mi South 16.1 mph 20.7 mph N/A   Overcast
11:15 AM 54.9 °F 44.4 °F 68% 30.03 in 10.0 mi South 15.0 mph 20.7 mph N/A   Overcast
11:35 AM 56.3 °F 44.6 °F 65% 30.02 in 10.0 mi South 21.9 mph 33.4 mph N/A   Overcast
11:55 AM 57.2 °F 44.4 °F 62% 30.01 in 10.0 mi South 21.9 mph 28.8 mph N/A   Overcast
12:15 PM 58.1 °F 44.6 °F 61% 30.01 in 10.0 mi South 19.6 mph 28.8 mph N/A   Overcast
12:35 PM 58.1 °F 44.6 °F 61% 30.01 in 10.0 mi South 19.6 mph 32.2 mph N/A   Overcast
12:55 PM 58.1 °F 45.1 °F 62% 30.01 in 10.0 mi South 21.9 mph 32.2 mph N/A   Overcast
1:15 PM 58.1 °F 46.2 °F 65% 30.01 in 10.0 mi South 20.7 mph 28.8 mph N/A   Overcast
1:35 PM 58.1 °F 46.4 °F 65% 30.00 in 10.0 mi South 23.0 mph 31.1 mph N/A   Overcast
1:55 PM 58.1 °F 46.4 °F 65% 29.99 in 10.0 mi South 24.2 mph 29.9 mph N/A   Overcast
2:15 PM 59.0 °F 46.8 °F 64% 29.98 in 10.0 mi South 21.9 mph 31.1 mph N/A   Overcast
2:35 PM 59.0 °F 46.6 °F 63% 29.97 in 10.0 mi South 20.7 mph 28.8 mph N/A   Overcast
2:55 PM 59.4 °F 46.8 °F 63% 29.96 in 10.0 mi South 19.6 mph 26.5 mph N/A   Overcast
3:15 PM 59.9 °F 46.8 °F 62% 29.94 in 10.0 mi South 16.1 mph 28.8 mph N/A   Overcast
3:35 PM 60.8 °F 47.1 °F 61% 29.93 in 10.0 mi South 20.7 mph 28.8 mph N/A   Overcast
3:55 PM 60.8 °F 48.6 °F 64% 29.93 in 10.0 mi South 19.6 mph 31.1 mph N/A   Overcast
4:15 PM 60.3 °F 48.9 °F 66% 29.92 in 10.0 mi South 21.9 mph 29.9 mph N/A   Overcast
4:35 PM 60.3 °F 49.3 °F 67% 29.91 in 10.0 mi South 23.0 mph 35.7 mph N/A   Overcast
4:55 PM 59.9 °F 49.5 °F 68% 29.91 in 10.0 mi SSW 24.2 mph 34.5 mph N/A   Overcast
5:35 PM 59.2 °F 50.0 °F 72% 29.90 in 10.0 mi South 19.6 mph 24.2 mph N/A   Overcast
5:55 PM 59.0 °F 49.8 °F 72% 29.89 in 10.0 mi South 18.4 mph 24.2 mph N/A   Overcast
6:15 PM 59.2 °F 49.8 °F 71% 29.89 in 10.0 mi South 16.1 mph 24.2 mph N/A   Overcast
6:35 PM 59.4 °F 49.5 °F 70% 29.88 in 10.0 mi South 18.4 mph 23.0 mph N/A   Overcast
6:55 PM 59.9 °F 49.5 °F 68% 29.88 in 10.0 mi South 17.3 mph 27.6 mph N/A   Overcast
7:15 PM 59.9 °F 49.6 °F 69% 29.88 in 10.0 mi South 16.1 mph 26.5 mph N/A   Overcast
7:35 PM 59.7 °F 50.0 °F 70% 29.88 in 10.0 mi South 18.4 mph 26.5 mph N/A   Overcast
7:55 PM 59.5 °F 50.2 °F 71% 29.88 in 10.0 mi South 13.8 mph 21.9 mph N/A   Overcast
8:35 PM 59.5 °F 50.9 °F 73% 29.87 in 10.0 mi South 18.4 mph 26.5 mph N/A   Overcast
8:55 PM 59.4 °F 51.3 °F 75% 29.87 in 10.0 mi South 19.6 mph 26.5 mph N/A   Overcast
9:15 PM 59.2 °F 51.4 °F 75% 29.87 in 10.0 mi South 16.1 mph 26.5 mph N/A   Overcast
9:35 PM 59.0 °F 51.8 °F 77% 29.87 in 10.0 mi South 18.4 mph 26.5 mph N/A   Overcast
9:55 PM 59.2 °F 52.0 °F 77% 29.87 in 10.0 mi South 15.0 mph 25.3 mph N/A   Overcast
10:15 PM 59.2 °F 52.0 °F 77% 29.87 in 10.0 mi South 16.1 mph 20.7 mph N/A   Overcast
10:35 PM 59.5 °F 52.2 °F 77% 29.87 in 10.0 mi South 16.1 mph 26.5 mph N/A   Overcast
10:55 PM 59.9 °F 52.5 °F 77% 29.87 in 10.0 mi South 19.6 mph 24.2 mph N/A   Overcast
11:15 PM 60.1 °F 52.7 °F 77% 29.87 in 10.0 mi South 17.3 mph 25.3 mph N/A   Overcast
11:35 PM 60.1 °F 52.9 °F 77% 29.87 in 10.0 mi South 16.1 mph 21.9 mph N/A   Overcast
11:55 PM 59.9 °F 53.1 °F 78% 29.86 in 10.0 mi South 15.0 mph 18.4 mph N/A   Overcast